Погода в Китайгороде

Украина / Днепропетровская область     48°54′00″N   34°26′48″E
темп.,
°C
ветер,
м/с
пор.,
м/с
влажн.,
%
обл.,
%
осадки,
мм/ч
давл.,
гПа
погр.,
м
18 мая, ср
ср1800:00+11сз3478100 0.1 101180
03:00+8с3682100 0.1 1011118
06:00+8с3678100 0.0 1011151
09:00+11с5759100 0.0 1012615
12:00+14с554296 0.0 10122392
15:00+15ссз7743100 0.0 10122304
18:00+12с897330 0.9 10131092
21:00+8ссз5109370 0.9 1015325
19 мая, чт
чт1900:00+8ссз51195100 0.3 1016350
03:00+9с6148873 1.2 1017517
06:00+8с6138672 0.0 1018412
09:00+13с710675 0.0 1020838
12:00+16с810495 0.0 10201819
15:00+17ссз81048100 0.0 10192381
18:00+16ссз6105798 0.0 1019687
21:00+12сз4107193 0.0 1020219
20 мая, пт
пт2000:00+10сз367352 0.0 102082
03:00+8сз378584 0.0 1020132
06:00+8сз378094 0.0 1021146
09:00+13сз4560100 0.0 1022407
12:00+18сз4655100 0.0 10211335
15:00+19зсз6753100 0.3 10191640
18:00+18зсз4864100 0.3 1018611
21:00+14ю1188100 0.8 101711
21 мая, сб
сб2100:00+13ю358937 0.0 101592
03:00+13юз51577100 0.0 1011325
06:00+14юз3876100 0.3 1010231
09:00+16зюз71178100 1.1 1008724
12:00+17зсз7108080 0.1 10071078
15:00+22зсз8104776 0.2 10072176
18:00+20сз5762100 0.1 10071263
21:00+15св2283100 0.1 100724
22 мая, вс
вс2200:00+15ююз1188100 0.3 100615
03:00+14ююв2389100 0.6 100589
06:00+14ююз4997100 0.7 1002465
09:00+15зсз7108999 1.0 1001645
12:00+17зсз897397 1.3 10021229
15:00+17сз787360 3.4 10021136
18:00+14с567878 1.2 1003796
21:00+10св468999 1.2 1004486